星链-36582(STARLINK-36582)

导读

STARLINK-36582是美国SpaceX公司星链(Starlink)星座中的一颗低轨通信卫星,于2026年1月29日发射升空。它运行在近地轨道,依托星链先进的通信技术,能够提供低延迟、高速率的全球互联网接入服务,重点覆盖偏远及网络基础设施薄弱区域,进一步扩充了星链星座的服务容量,助力提升全球互联互通水平,推动数字包容发展。

基本信息
目录编号:
67599
目录名称:
STARLINK-36582
国际标识:
2026-018L
轨道中心:
EARTH
卫星名称:
星链-36582
卫星全名:
星链-36582(STARLINK-36582)
卫星状态:
在轨 (已飞行135 天)
发射日期:
2026-01-29 UTC
国别 :
美国 (US)
星等 :
--
轨道信息
数据来源 国际轨道数据
星历时间: 2026-06-13T01:51:12+0800
9小时前
查看轨道信息
半长轴: 6843.691km
偏心率: 0.0000624
轨道倾角: 97.285°
近地点辐角 98.113°
升交点赤经 228.638°
平近点角 262.019°
近地点: 465.126km
远地点: 465.982km
周期: 93.906分钟
每日圈数: 15.334414
详细信息
固有亮度:
5
最大亮度:
2.5
卫星平台:
Starlink V1.0
覆盖范围:
全球
运营商:
太空探索技术公司
运营商所在国:
美国
制造商(研发单位):
太空探索技术公司
制造商所在国:
美国
使用方式:
暂无
卫星简介
Starlink 计划是 SpaceX 推出的全球卫星互联网项目,通过发射低轨道卫星,为全球尤其是偏远地区提供高速、低延迟的互联网服务。自 2019 年起,Starlink 已部署数千颗卫星,旨在缩小全球数字鸿沟,推动互联网普及。该项目还为军事、航空等行业提供通信支持,带来广泛经济效益。
2D轨道图
3D轨道图
轨道高度分析图
轨道倾角分析图
轨道综合分析图
查看轨道综合分析图